EA7RX-13 Weather Reports


Display with metric or nautical units.
time (UTC)temp
F
wind
direction
speed
MPH
gust
MPH
rain 1hr
in
rain 24hr
in
rain mn
in
humidity
%
barometer
mb
20260507002351 63 0.0 0.0 0.00 0.00 0.00 59 1008.8
20260507001351 63 0.0 0.0 0.00 0.00 0.00 58 1009.0
20260507000351 62 0.0 0.0 0.00 0.00 0.00 64 1009.2
20260506235351 63 0.0 0.0 0.00 0.00 0.00 62 1008.8
20260506234351 63 0.0 0.0 0.00 0.00 0.00 62 1008.8
20260506233351 63 0.0 0.0 0.00 0.00 0.00 60 1008.8
20260506232351 64 0.0 0.0 0.00 0.00 0.00 64 1008.9
20260506231351 63 0.0 0.0 0.00 0.00 0.00 60 1008.8
20260506230351 63 0.0 0.0 0.00 0.00 0.00 58 1008.6
20260506225351 63 0.0 0.0 0.00 0.00 0.00 59 1008.5
20260506224351 63 0.0 0.0 0.00 0.00 0.00 64 1008.6
20260506223351 62 0.0 0.0 0.00 0.00 0.00 60 1008.5
20260506222351 63 0.0 0.0 0.00 0.00 0.00 60 1008.5
20260506221351 64 0.0 0.0 0.00 0.00 0.00 59 1008.4
20260506220351 63 0.0 0.0 0.00 0.00 0.00 61 1008.5
20260506215351 63 0.0 0.0 0.00 0.00 0.00 65 1008.8
20260506214351 62 0.0 0.0 0.00 0.00 0.00 67 1008.9
20260506213351 62 0.0 0.0 0.00 0.00 0.00 71 1008.8
20260506212351 62 0.0 0.0 0.00 0.00 0.00 75 1008.7
20260506211351 62 0.0 0.0 0.00 0.00 0.00 80 1008.7
20260506210351 63 0.0 0.0 0.00 0.00 0.00 68 1008.5
20260506205351 63 0.0 0.0 0.00 0.00 0.00 70 1008.4
20260506204351 63 0.0 0.0 0.00 0.00 0.00 72 1008.4
20260506203351 63 0.0 0.0 0.00 0.00 0.00 76 1008.3
20260506202351 63 0.0 0.0 0.00 0.00 0.00 69 1008.2
20260506201351 63 0.0 0.0 0.00 0.00 0.00 70 1008.1
20260506200350 64 0.0 0.0 0.00 0.00 0.00 61 1008.0
20260506195351 64 0.0 0.0 0.00 0.00 0.00 69 1007.8
20260506194351 65 0.0 0.0 0.00 0.00 0.00 72 1007.6
20260506193351 66 0.0 0.0 0.00 0.00 0.00 57 1007.5
20260506192351 67 0.0 0.0 0.00 0.00 0.00 52 1007.3
20260506191350 68 0.0 0.0 0.00 0.00 0.00 46 1007.0
20260506190350 69 0.0 0.0 0.00 0.00 0.00 48 1007.0
20260506185350 70 0.0 0.0 0.00 0.00 0.00 47 1006.9
20260506184351 71 0.0 0.0 0.00 0.00 0.00 43 1006.6
20260506183351 72 0.0 0.0 0.00 0.00 0.00 40 1006.7
20260506182350 72 0.0 0.0 0.00 0.00 0.00 38 1006.7
20260506181351 73 0.0 0.0 0.00 0.00 0.00 39 1006.6
20260506180350 73 0.0 0.0 0.00 0.00 0.00 38 1006.5
20260506175350 73 0.0 0.0 0.00 0.00 0.00 36 1006.7
20260506174350 73 0.0 0.0 0.00 0.00 0.00 39 1006.6
20260506173351 73 0.0 0.0 0.00 0.00 0.00 42 1006.6
20260506172350 74 0.0 0.0 0.00 0.00 0.00 37 1006.7
20260506171350 75 0.0 0.0 0.00 0.00 0.00 35 1006.6
20260506170350 75 0.0 0.0 0.00 0.00 0.00 39 1006.8
20260506165350 76 0.0 0.0 0.00 0.00 0.00 37 1006.6
20260506164350 76 0.0 0.0 0.00 0.00 0.00 37 1006.5
20260506163350 76 0.0 0.0 0.00 0.00 0.00 38 1006.6
20260506162350 75 0.0 0.0 0.00 0.00 0.00 36 1006.9
20260506161350 75 0.0 0.0 0.00 0.00 0.00 37 1006.7
20260506160350 77 0.0 0.0 0.00 0.00 0.00 36 1006.6
20260506155350 77 0.0 0.0 0.00 0.00 0.00 36 1006.6
20260506154350 77 0.0 0.0 0.00 0.00 0.00 35 1006.7
20260506153350 76 0.0 0.0 0.00 0.00 0.00 37 1006.9
20260506152350 77 0.0 0.0 0.00 0.00 0.00 38 1006.9
20260506151350 76 0.0 0.0 0.00 0.00 0.00 37 1007.0
20260506150350 78 0.0 0.0 0.00 0.00 0.00 36 1006.9
20260506145350 77 0.0 0.0 0.00 0.00 0.00 36 1007.1
20260506144350 77 0.0 0.0 0.00 0.00 0.00 36 1007.3
20260506143350 79 0.0 0.0 0.00 0.00 0.00 36 1007.2
20260506142350 80 0.0 0.0 0.00 0.00 0.00 35 1007.3
20260506141350 79 0.0 0.0 0.00 0.00 0.00 35 1007.4
20260506140350 78 0.0 0.0 0.00 0.00 0.00 34 1007.6
20260506135350 79 0.0 0.0 0.00 0.00 0.00 35 1007.6
20260506134350 80 0.0 0.0 0.00 0.00 0.00 35 1007.6
20260506133350 80 0.0 0.0 0.00 0.00 0.00 35 1007.7
20260506132350 80 0.0 0.0 0.00 0.00 0.00 36 1007.8
20260506131350 78 0.0 0.0 0.00 0.00 0.00 35 1007.9
20260506130350 78 0.0 0.0 0.00 0.00 0.00 35 1008.0
20260506125350 77 0.0 0.0 0.00 0.00 0.00 37 1008.3
20260506124350 76 0.0 0.0 0.00 0.00 0.00 35 1008.4
20260506123350 81 0.0 0.0 0.00 0.00 0.00 33 1008.1
20260506122350 78 0.0 0.0 0.00 0.00 0.00 36 1008.3
20260506121350 78 0.0 0.0 0.00 0.00 0.00 34 1008.5
20260506120350 76 0.0 0.0 0.00 0.00 0.00 34 1008.8
20260506115350 78 0.0 0.0 0.00 0.00 0.00 36 1008.7
20260506114350 77 0.0 0.0 0.00 0.00 0.00 34 1008.9
20260506113350 76 0.0 0.0 0.00 0.00 0.00 34 1009.0
20260506112350 77 0.0 0.0 0.00 0.00 0.00 34 1009.0
20260506111350 77 0.0 0.0 0.00 0.00 0.00 36 1009.2
20260506110350 76 0.0 0.0 0.00 0.00 0.00 38 1009.5
20260506105350 75 0.0 0.0 0.00 0.00 0.00 36 1009.6
20260506104350 75 0.0 0.0 0.00 0.00 0.00 41 1009.7
20260506103350 74 0.0 0.0 0.00 0.00 0.00 41 1009.8
20260506102350 71 0.0 0.0 0.00 0.00 0.00 44 1010.2
20260506101350 71 0.0 0.0 0.00 0.00 0.00 45 1010.2
20260506100350 70 0.0 0.0 0.00 0.00 0.00 44 1010.4
20260506095350 71 0.0 0.0 0.00 0.00 0.00 49 1010.3
20260506094350 69 0.0 0.0 0.00 0.00 0.00 48 1010.4
20260506093350 69 0.0 0.0 0.00 0.00 0.00 49 1010.5
20260506092350 69 0.0 0.0 0.00 0.00 0.00 46 1010.4
20260506091350 69 0.0 0.0 0.00 0.00 0.00 48 1010.5
20260506090350 68 0.0 0.0 0.00 0.00 0.00 49 1010.6
20260506085350 68 0.0 0.0 0.00 0.00 0.00 53 1010.6
20260506084350 67 0.0 0.0 0.00 0.00 0.00 51 1010.7
20260506083350 66 0.0 0.0 0.00 0.00 0.00 50 1010.9
20260506082350 66 0.0 0.0 0.00 0.00 0.00 51 1010.8
20260506081350 65 0.0 0.0 0.00 0.00 0.00 54 1011.0
20260506080350 63 0.0 0.0 0.00 0.00 0.00 57 1011.2
20260506073350 60 0.0 0.0 0.00 0.00 0.00 73 1011.5
20260506072350 59 0.0 0.0 0.00 0.00 0.00 77 1011.7
20260506071350 57 0.0 0.0 0.00 0.00 0.00 98 1011.8
20260506070350 56 0.0 0.0 0.00 0.00 0.00 99 1011.9
20260506062350 53 0.0 0.0 0.00 0.00 0.00 10 1012.2
20260506061350 53 0.0 0.0 0.00 0.00 0.00 10 1012.1
20260506060350 52 0.0 0.0 0.00 0.00 0.00 10 1012.1
20260506051350 51 0.0 0.0 0.00 0.00 0.00 10 1012.0
20260506050350 51 0.0 0.0 0.00 0.00 0.00 10 1012.1
20260506044350 52 0.0 0.0 0.00 0.00 0.00 10 1011.9
20260506043350 53 0.0 0.0 0.00 0.00 0.00 10 1011.9
20260506042350 52 0.0 0.0 0.00 0.00 0.00 10 1012.0
20260506041350 52 0.0 0.0 0.00 0.00 0.00 10 1011.9
20260506040350 52 0.0 0.0 0.00 0.00 0.00 10 1012.0
20260506035350 52 0.0 0.0 0.00 0.00 0.00 10 1011.9
20260506034350 53 0.0 0.0 0.00 0.00 0.00 10 1011.9
20260506033350 53 0.0 0.0 0.00 0.00 0.00 10 1012.0
20260506032350 53 0.0 0.0 0.00 0.00 0.00 10 1012.0
20260506031350 53 0.0 0.0 0.00 0.00 0.00 10 1012.0
20260506030350 54 0.0 0.0 0.00 0.00 0.00 10 1012.1
20260506025350 54 0.0 0.0 0.00 0.00 0.00 10 1012.0
20260506024350 53 0.0 0.0 0.00 0.00 0.00 10 1012.0
20260506023350 54 0.0 0.0 0.00 0.00 0.00 10 1012.1
20260506022350 54 0.0 0.0 0.00 0.00 0.00 10 1012.1
20260506021350 54 0.0 0.0 0.00 0.00 0.00 10 1012.1
20260506020350 55 0.0 0.0 0.00 0.00 0.00 10 1012.0
20260506015350 55 0.0 0.0 0.00 0.00 0.00 10 1012.1
20260506014350 55 0.0 0.0 0.00 0.00 0.00 10 1011.9
20260506013350 55 0.0 0.0 0.00 0.00 0.00 10 1012.0
20260506012350 55 0.0 0.0 0.00 0.00 0.00 10 1012.1
20260506011350 55 0.0 0.0 0.00 0.00 0.00 10 1012.3
20260506010350 55 0.0 0.0 0.00 0.00 0.00 10 1012.4
20260506005350 55 0.0 0.0 0.00 0.00 0.00 10 1012.4
20260506004350 55 0.0 0.0 0.00 0.00 0.00 10 1012.4
20260506003350 55 0.0 0.0 0.00 0.00 0.00 10 1012.5